OneWeb SL0145

operational
NORAD ID: 47260 Int'l Des: 2020-100 Owner: ONEWEB Country: UK Constellation: oneweb
LEOCIRCULARPOLARONEWEB_TYPE

Über OneWeb SL0145

Beschreibung wird geladen...

Live-Position

3D-Globus wird geladen...

Nächste Überflüge

Höhenverlauf

Altitude vs Time

uPlot chart will show altitude changes over time

Zweizeiliger Elementsatz

1 47260U 20100C 25258.63881122 .00000378 00000-0 10150-2 0 9992
2 47260 87.8903 45.1837 0001394 91.6700 268.4589 13.12442830228714
Epoch: 15. Sept. 2025 • Age: 17 hours

Aktueller Status

Höhe 1223.6 km
Geschwindigkeit 7.25 km/s
Subsatellitenpunkt 62.88°N, 68.15°W
Startdatum 18. Dez. 2020
Alter 4.7 years
Typ internet

Technische Details

Klassifizierung Payload
Masse 148.00 kg
Trockenmasse 140.00 kg
Gesamtmasse 148.00 kg
Länge 1.30 m
Durchmesser 1.00 m
Spannweite 5.00 m
Form Trapezoid+2 pan
Hersteller ONEWUS
Bus-Typ ARROW
Phasenstatus In Orbit
Besitzer/Staat ONEWEB/UK

Große Konstellationen

Loading constellations...